When you browse on this site, cookies collect data to enhance your experience and personalize the content and advertising you see.
Visit our Privacy Policy to learn more. By continuing to use the site, you agree to this use of cookies and data.
  • en Suisse
  • Liste des pays
  • À 7 jours
  • Température de l'eau
  • Carte satellitaire
  • Carte météo
  • Widgets météo
  • user-avatar
    Se connecter

    Météo par heure à Bandar Abbas

    Ce jour, 17 Décembre, Lundi

    Heure Température Précipitation Vent Pression Humidité
    00:00 +22°C° 0 mm 1 m/s 766 mmHg 37%
    01:00 +22°C° 0 mm 1 m/s 766 mmHg 37%
    02:00 +22°C° 0 mm 1 m/s 766 mmHg 37%
    03:00 +21°C° 0 mm 1 m/s 766 mmHg 38%
    04:00 +21°C° 0 mm 1 m/s 765 mmHg 36%
    05:00 +20°C° 0 mm 1 m/s 766 mmHg 36%
    06:00 +20°C° 0 mm 1 m/s 766 mmHg 36%
    07:00 +20°C° 0 mm 1 m/s 766 mmHg 36%
    08:00 +22°C° 0 mm 1 m/s 766 mmHg 31%
    09:00 +24°C° 0 mm 1 m/s 766 mmHg 26%
    10:00 +26°C° 0 mm 1 m/s 766 mmHg 20%
    11:00 +27°C° 0 mm 1 m/s 766 mmHg 19%
    12:00 +27°C° 0 mm 1 m/s 766 mmHg 18%
    13:00 +28°C° 0 mm 1 m/s 765 mmHg 16%
    14:00 +28°C° 0 mm 1 m/s 765 mmHg 16%
    15:00 +28°C° 0 mm 1 m/s 765 mmHg 15%
    16:00 +28°C° 0 mm 1 m/s 764 mmHg 16%
    17:00 +27°C° 0 mm 1 m/s 764 mmHg 20%
    18:00 +25°C° 0 mm 1 m/s 765 mmHg 24%
    19:00 +24°C° 0 mm 1 m/s 765 mmHg 27%
    20:00 +23°C° 0 mm 1 m/s 765 mmHg 28%
    21:00 +21°C° 0 mm 0 m/s 765 mmHg 29%
    22:00 +20°C° 0 mm 0 m/s 765 mmHg 30%
    23:00 +20°C° 0 mm 0 m/s 765 mmHg 30%

    Demain, 18 Décembre, Mardi

    Heure Température Précipitation Vent Pression Humidité
    00:00 +19°C° 0 mm 0 m/s 765 mmHg 31%
    01:00 +19°C° 0 mm 0 m/s 765 mmHg 32%
    02:00 +19°C° 0 mm 0 m/s 765 mmHg 32%
    03:00 +18°C° 0 mm 0 m/s 765 mmHg 32%
    04:00 +18°C° 0 mm 0 m/s 765 mmHg 32%
    05:00 +18°C° 0 mm 0 m/s 765 mmHg 33%
    06:00 +17°C° 0 mm 0 m/s 765 mmHg 34%
    07:00 +17°C° 0 mm 0 m/s 765 mmHg 34%
    08:00 +19°C° 0 mm 0 m/s 765 mmHg 30%
    09:00 +23°C° 0 mm 1 m/s 765 mmHg 26%
    10:00 +25°C° 0 mm 1 m/s 766 mmHg 22%
    11:00 +26°C° 0 mm 1 m/s 765 mmHg 22%
    12:00 +26°C° 0 mm 1 m/s 765 mmHg 21%
    13:00 +27°C° 0 mm 1 m/s 764 mmHg 21%
    14:00 +27°C° 0 mm 1 m/s 764 mmHg 21%
    15:00 +27°C° 0 mm 2 m/s 764 mmHg 21%
    16:00 +27°C° 0 mm 2 m/s 763 mmHg 20%
    17:00 +26°C° 0 mm 2 m/s 763 mmHg 25%
    18:00 +25°C° 0 mm 2 m/s 764 mmHg 29%
    19:00 +22°C° 0 mm 3 m/s 764 mmHg 33%
    20:00 +22°C° 0 mm 3 m/s 764 mmHg 35%
    21:00 +21°C° 0 mm 3 m/s 764 mmHg 37%
    22:00 +21°C° 0 mm 3 m/s 764 mmHg 39%
    23:00 +20°C° 0 mm 2 m/s 764 mmHg 40%

    Après-demain, 19 Décembre, Mercredi

    Heure Température Précipitation Vent Pression Humidité
    00:00 +20°C° 0 mm 2 m/s 763 mmHg 41%
    01:00 +20°C° 0 mm 2 m/s 763 mmHg 42%
    02:00 +19°C° 0 mm 2 m/s 763 mmHg 42%
    03:00 +20°C° 0 mm 1 m/s 763 mmHg 42%
    04:00 +20°C° 0 mm 1 m/s 763 mmHg 41%
    05:00 +20°C° 0 mm 1 m/s 763 mmHg 41%
    06:00 +19°C° 0 mm 1 m/s 763 mmHg 42%
    07:00 +18°C° 0 mm 2 m/s 763 mmHg 42%
    08:00 +20°C° 0 mm 2 m/s 764 mmHg 38%
    09:00 +23°C° 0 mm 2 m/s 764 mmHg 34%
    10:00 +25°C° 0 mm 2 m/s 764 mmHg 30%
    11:00 +25°C° 0 mm 2 m/s 764 mmHg 28%
    12:00 +26°C° 0 mm 1 m/s 763 mmHg 26%
    13:00 +27°C° 0 mm 1 m/s 763 mmHg 24%
    14:00 +27°C° 0 mm 1 m/s 763 mmHg 24%
    15:00 +27°C° 0 mm 1 m/s 762 mmHg 24%
    16:00 +28°C° 0 mm 1 m/s 762 mmHg 24%
    17:00 +26°C° 0 mm 1 m/s 763 mmHg 28%
    18:00 +25°C° 0 mm 1 m/s 763 mmHg 32%
    19:00 +24°C° 0 mm 1 m/s 763 mmHg 36%
    20:00 +24°C° 0 mm 1 m/s 763 mmHg 35%
    21:00 +23°C° 0 mm 1 m/s 764 mmHg 35%
    22:00 +23°C° 0 mm 1 m/s 764 mmHg 34%
    23:00 +22°C° 0 mm 1 m/s 764 mmHg 33%

    20 Décembre, Jeudi

    Heure Température Précipitation Vent Pression Humidité
    00:00 +22°C° 0 mm 1 m/s 764 mmHg 32%
    01:00 +22°C° 0 mm 1 m/s 763 mmHg 30%
    02:00 +21°C° 0 mm 1 m/s 763 mmHg 30%
    03:00 +21°C° 0 mm 1 m/s 763 mmHg 29%
    04:00 +21°C° 0 mm 1 m/s 763 mmHg 29%
    05:00 +20°C° 0 mm 1 m/s 763 mmHg 29%
    06:00 +20°C° 0 mm 1 m/s 764 mmHg 28%
    07:00 +20°C° 0 mm 1 m/s 764 mmHg 28%
    08:00 +21°C° 0 mm 2 m/s 764 mmHg 24%
    09:00 +25°C° 0 mm 2 m/s 764 mmHg 21%
    10:00 +27°C° 0 mm 2 m/s 764 mmHg 17%
    11:00 +28°C° 0 mm 2 m/s 764 mmHg 15%
    12:00 +29°C° 0 mm 2 m/s 763 mmHg 14%
    13:00 +29°C° 0 mm 2 m/s 763 mmHg 13%
    14:00 +29°C° 0 mm 1 m/s 762 mmHg 13%
    15:00 +29°C° 0 mm 1 m/s 762 mmHg 13%
    16:00 +29°C° 0 mm 1 m/s 761 mmHg 13%
    17:00 +28°C° 0 mm 1 m/s 762 mmHg 16%
    18:00 +26°C° 0 mm 1 m/s 762 mmHg 20%
    19:00 +24°C° 0 mm 1 m/s 762 mmHg 24%
    20:00 +24°C° 0 mm 1 m/s 763 mmHg 24%
    21:00 +23°C° 0 mm 1 m/s 763 mmHg 25%
    22:00 +23°C° 0 mm 1 m/s 763 mmHg 25%
    23:00 +22°C° 0 mm 1 m/s 762 mmHg 25%

    21 Décembre, Vendredi

    Heure Température Précipitation Vent Pression Humidité
    00:00 +22°C° 0 mm 1 m/s 762 mmHg 25%
    01:00 +21°C° 0 mm 1 m/s 762 mmHg 25%
    02:00 +21°C° 0 mm 1 m/s 762 mmHg 25%
    03:00 +21°C° 0 mm 1 m/s 761 mmHg 25%
    04:00 +18°C° 0 mm 0 m/s 761 mmHg 24%
    05:00 +18°C° 0 mm 0 m/s 761 mmHg 24%
    06:00 +18°C° 0 mm 0 m/s 762 mmHg 24%
    07:00 +17°C° 0 mm 0 m/s 762 mmHg 24%
    08:00 +20°C° 0 mm 0 m/s 762 mmHg 21%
    09:00 +22°C° 0 mm 0 m/s 762 mmHg 17%
    10:00 +24°C° 0 mm 0 m/s 763 mmHg 14%
    11:00 +25°C° 0 mm 0 m/s 762 mmHg 14%
    12:00 +28°C° 0 mm 1 m/s 761 mmHg 13%
    13:00 +28°C° 0 mm 1 m/s 761 mmHg 13%
    14:00 +28°C° 0 mm 1 m/s 760 mmHg 14%
    15:00 +28°C° 0 mm 1 m/s 760 mmHg 15%
    16:00 +28°C° 0 mm 2 m/s 760 mmHg 16%
    17:00 +26°C° 0 mm 2 m/s 760 mmHg 22%
    18:00 +25°C° 0 mm 2 m/s 760 mmHg 28%
    19:00 +24°C° 0 mm 2 m/s 761 mmHg 33%
    20:00 +23°C° 0 mm 2 m/s 761 mmHg 36%
    21:00 +21°C° 0 mm 2 m/s 761 mmHg 39%
    22:00 +21°C° 0 mm 2 m/s 761 mmHg 42%
    23:00 +20°C° 0 mm 2 m/s 760 mmHg 43%

    22 Décembre, Samedi

    Heure Température Précipitation Vent Pression Humidité
    00:00 +20°C° 0 mm 2 m/s 760 mmHg 44%
    01:00 +20°C° 0 mm 2 m/s 760 mmHg 44%
    02:00 +19°C° 0 mm 2 m/s 759 mmHg 44%
    03:00 +20°C° 0 mm 1 m/s 759 mmHg 44%
    04:00 +20°C° 0 mm 1 m/s 759 mmHg 44%
    05:00 +20°C° 0 mm 1 m/s 759 mmHg 44%
    06:00 +18°C° 0 mm 2 m/s 760 mmHg 44%
    07:00 +18°C° 0 mm 2 m/s 760 mmHg 43%
    08:00 +20°C° 0 mm 2 m/s 760 mmHg 39%
    09:00 +23°C° 0 mm 2 m/s 760 mmHg 34%
    10:00 +25°C° 0 mm 2 m/s 761 mmHg 30%
    11:00 +25°C° 0 mm 2 m/s 760 mmHg 29%
    12:00 +26°C° 0 mm 3 m/s 759 mmHg 29%
    13:00 +27°C° 0 mm 3 m/s 759 mmHg 29%
    14:00 +27°C° 0 mm 3 m/s 758 mmHg 30%
    15:00 +27°C° 0 mm 3 m/s 758 mmHg 32%
    16:00 +27°C° 0 mm 3 m/s 758 mmHg 34%
    17:00 +26°C° 0 mm 3 m/s 758 mmHg 38%
    18:00 +25°C° 0 mm 3 m/s 759 mmHg 42%
    19:00 +24°C° 0 mm 3 m/s 759 mmHg 46%
    20:00 +24°C° 0 mm 3 m/s 759 mmHg 49%
    21:00 +22°C° 0 mm 4 m/s 759 mmHg 53%
    22:00 +22°C° 0 mm 4 m/s 760 mmHg 56%
    23:00 +22°C° 0 mm 4 m/s 759 mmHg 58%
    Voir plus